sat.trackr.live / text

‹ back to catalog

ORBCOMM FM32

NORAD 25982 · 1999-065C

PAYLOAD ACTIVE UNKNOWN

§ Identity

Operator
Country
ORB
Launch date
1999-12-04
Launch site
ERAS
Launch vehicle
Mass (kg)
RCS (m²)
0.85

Purposes: comms

External: N2YO · Heavens-Above · Gunter

§ Orbital elements

Epoch: 2026-05-25T01:43:32.236032Z

Period
100.20 min
Inclination
45.0159°
Eccentricity
0.0005725
Mean motion
14.37095445 rev/d
Perigee alt
764.0 km
Apogee alt
772.2 km
Semi-major
7,146.2 km
B*
2.2358e-4
RAAN
282.6508°
Arg perigee
288.4865°
Mean anomaly
71.5361°
Rev number
38,376

§ Raw data

ORBCOMM FM321 25982U 99065C   26145.07190088  .00000528  00000+0  22358-3 0  99932 25982  45.0159 282.6508 0005725 288.4865  71.5361 14.37095445383765

JSON: /api/v1/satellites/25982 · /tle

For live sub-satellite position, see the globe view (requires WebGL).

§ Visibility from observer

Set your observer location to see the next 7 days of passes ≥ 10°. The values pass through the URL so the page stays shareable.

No JS? Fill the form by hand. The geolocation button needs JavaScript.